FW8353 Weather Reports


Display with metric or nautical units.
time (UTC)temp
F
wind
direction
speed
MPH
gust
MPH
rain 1hr
in
rain 24hr
in
rain mn
in
humidity
%
barometer
mb
20260906123027 0 0.0 0.0 0.00 0.00 0.00 1015.9
20260906121508 0 0.0 0.0 0.00 0.00 0.00 1016.0
20260906120004 0 0.0 0.0 0.00 0.00 0.00 1015.8
20260906114624 0 0.0 0.0 0.00 0.00 0.00 1015.6
20260906113056 0 0.0 0.0 0.00 0.00 0.00 1015.2
20260906111600 0 0.0 0.0 0.00 0.00 0.00 1015.1
20260906110046 0 0.0 0.0 0.00 0.00 0.00 1014.9
20260906104545 0 0.0 0.0 0.00 0.00 0.00 1014.8
20260906103047 0 0.0 0.0 0.00 0.00 0.00 1014.8
20260906101537 72 32 0.0 1.0 0.00 0.00 0.00 91 1014.7
20260906100033 72 48 0.0 1.0 0.00 0.00 0.00 91 1014.5
20260906094544 73 62 0.0 2.0 0.00 0.00 0.00 90 1014.4
20260906093037 73 68 0.0 2.0 0.00 0.00 0.00 90 1014.3
20260906091534 73 61 0.0 2.0 0.00 0.00 0.00 90 1014.3
20260906090024 74 243 0.0 1.0 0.00 0.00 0.00 89 1014.3
20260906084522 74 85 0.0 1.0 0.00 0.00 0.00 89 1014.1
20260906083020 75 60 0.0 2.0 0.00 0.00 0.00 89 1014.1
20260906081518 76 67 0.0 1.0 0.00 0.00 0.00 88 1014.1
20260906080015 76 63 0.0 1.0 0.00 0.00 0.00 86 1014.0
20260906074514 76 76 0.0 4.0 0.00 0.00 0.00 86 1014.1
20260906073012 77 68 0.0 2.0 0.00 0.00 0.00 86 1014.1
20260906071511 77 76 0.0 1.0 0.00 0.00 0.00 88 1014.1
20260906070019 77 70 0.0 0.0 0.00 0.00 0.00 86 1014.1
20260906064508 78 74 0.0 1.0 0.00 0.00 0.00 88 1014.1
20260906063007 78 18 0.0 0.0 0.00 0.00 0.00 88 1014.0
20260906061509 79 113 0.0 1.0 0.00 0.00 0.00 87 1014.1
20260906060002 79 25 0.0 3.0 0.00 0.00 0.00 86 1014.2
20260906054627 80 69 0.0 1.0 0.00 0.00 0.00 86 1014.3
20260906053056 80 94 0.0 4.0 0.00 0.00 0.00 84 1014.0
20260906051554 81 64 0.0 1.0 0.00 0.00 0.00 83 1014.1
20260906044550 82 60 0.0 1.0 0.00 0.00 0.00 80 1013.7
20260906043050 82 38 0.0 4.0 0.00 0.00 0.00 80 1013.6
20260906041550 82 53 0.0 1.0 0.00 0.00 0.00 79 1013.5
20260906040051 82 56 0.0 2.0 0.00 0.00 0.00 79 1013.4
20260906034552 82 120 0.0 1.0 0.00 0.00 0.00 78 1013.2
20260906033049 83 147 0.0 1.0 0.00 0.00 0.00 77 1013.1
20260906031607 83 60 0.0 1.0 0.00 0.00 0.00 76 1013.0
20260906030046 83 105 0.0 1.0 0.00 0.00 0.00 75 1012.9
20260906024557 83 227 0.0 1.0 0.00 0.00 0.00 75 1012.8
20260906023054 83 226 0.0 0.0 0.00 0.00 0.00 75 1012.7
20260906021546 83 226 0.0 0.0 0.00 0.00 0.00 72 1012.6
20260906020044 82 229 0.0 0.0 0.00 0.00 0.00 73 1012.4
20260906014545 83 229 0.0 0.0 0.00 0.00 0.00 73 1012.0
20260906013043 83 229 0.0 0.0 0.00 0.00 0.00 70 1012.0
20260906011543 84 229 0.0 0.0 0.00 0.00 0.00 69 1011.9
20260906010049 84 229 0.0 0.0 0.00 0.00 0.00 67 1011.7
20260906004544 85 229 0.0 0.0 0.00 0.00 0.00 65 1011.5
20260906003042 86 229 0.0 0.0 0.00 0.00 0.00 62 1011.4
20260906001542 87 229 0.0 0.0 0.00 0.00 0.00 60 1011.5
20260906000053 88 229 0.0 1.0 0.00 0.00 0.00 58 1011.7
20260905234548 89 228 0.0 1.0 0.00 0.00 0.00 55 1011.5
20260905233040 90 6 0.0 1.0 0.00 0.00 0.00 55 1011.6
20260905231539 91 240 0.0 1.0 0.00 0.00 0.00 54 1011.7
20260905230038 92 60 0.0 3.0 0.00 0.00 0.00 53 1011.7
20260905224538 94 15 0.0 4.0 0.00 0.00 0.00 52 1011.7
20260905223037 96 49 0.0 5.0 0.00 0.00 0.00 49 1011.5
20260905221536 99 12 0.0 2.0 0.00 0.00 0.00 46 1011.6
20260905220039 100 271 0.0 5.0 0.00 0.00 0.00 46 1011.4
20260905214535 98 269 0.0 1.0 0.00 0.00 0.00 46 1011.3
20260905213034 98 259 0.0 3.0 0.00 0.00 0.00 45 1011.2
20260905211556 98 269 0.0 6.0 0.00 0.00 0.00 44 1011.4
20260905210035 98 168 0.0 2.0 0.00 0.00 0.00 44 1011.5
20260905204529 100 263 1.0 5.0 0.00 0.00 0.00 41 1011.7
20260905203031 101 232 1.0 8.0 0.00 0.00 0.00 42 1011.7
20260905201533 101 255 1.0 8.0 0.00 0.00 0.00 41 1011.8
20260905200022 100 271 1.0 11.0 0.00 0.00 0.00 42 1011.9
20260905194521 100 221 1.0 10.0 0.00 0.00 0.00 42 1012.2
20260905193019 100 264 0.0 7.0 0.00 0.00 0.00 41 1012.3
20260905191517 99 251 3.0 11.0 0.00 0.00 0.00 42 1012.6
20260905190015 100 278 0.0 8.0 0.00 0.00 0.00 44 1012.6
20260905184514 99 269 4.0 9.0 0.00 0.00 0.00 44 1012.8
20260905183011 98 353 5.0 11.0 0.00 0.00 0.00 45 1013.0
20260905181509 99 70 0.0 6.0 0.00 0.00 0.00 47 1013.3
20260905180008 99 268 1.0 5.0 0.00 0.00 0.00 47 1013.3
20260905174507 99 234 1.0 5.0 0.00 0.00 0.00 47 1013.4
20260905173004 97 250 1.0 6.0 0.00 0.00 0.00 49 1013.5
20260905171501 96 276 1.0 4.0 0.00 0.00 0.00 50 1013.5
20260905170112 96 258 0.0 4.0 0.00 0.00 0.00 51 1013.7
20260905164558 96 113 0.0 4.0 0.00 0.00 0.00 51 1014.0
20260905163055 94 235 1.0 4.0 0.00 0.00 0.00 54 1014.1
20260905161552 93 274 2.0 5.0 0.00 0.00 0.00 56 1014.3
20260905160049 92 242 0.0 5.0 0.00 0.00 0.00 57 1014.2
20260905154548 92 280 0.0 3.0 0.00 0.00 0.00 58 1014.3
20260905153044 90 284 1.0 8.0 0.00 0.00 0.00 60 1014.3
20260905151547 89 216 1.0 6.0 0.00 0.00 0.00 65 1014.3
20260905150037 88 276 1.0 5.0 0.00 0.00 0.00 65 1014.3
20260905144534 87 276 0.0 4.0 0.00 0.00 0.00 67 1014.3
20260905143034 86 248 0.0 5.0 0.00 0.00 0.00 70 1014.3
20260905141530 86 234 1.0 5.0 0.00 0.00 0.00 68 1014.3
20260905140025 84 244 0.0 4.0 0.00 0.00 0.00 72 1014.2
20260905134521 83 236 1.0 4.0 0.00 0.00 0.00 74 1014.2
20260905133018 81 241 0.0 4.0 0.00 0.00 0.00 81 1014.2
20260905131521 79 213 0.0 0.0 0.00 0.00 0.00 85 1014.0
20260905130015 77 213 0.0 0.0 0.00 0.00 0.00 88 1014.1
20260905124522 76 214 0.0 0.0 0.00 0.00 0.00 90 1014.0